Location: Unspecified
(0.0000°N, 0.0000°E)
Time: 22:24:27
(UTC+02:00)

ARIANE 5 R/B - Visible Passes

Search period start: 26 May 2016 00:00
Search period end: 05 June 2016 00:00
Orbit: 626 x 38477 km, 6.9° (Epoch: 25 May)

Date Brightness Start Highest point End Pass type
(mag) Time Alt. Az. Time Alt. Az. Time Alt. Az.
26 May 6.8 01:06:52 10° W 01:21:01 26° WNW 01:21:01 26° WNW visible
26 May 6.1 13:40:56 10° W 15:26:24 63° W 00:26:16 51° WNW visible
27 May 5.7 12:39:57 10° W 14:28:53 78° WSW 23:31:33 70° NNE visible
28 May 6.0 11:40:25 10° W 14:44:39 88° S 22:36:51 43° ENE visible
29 May 6.6 10:41:48 10° W 21:24:47 77° N 21:42:07 20° ENE visible
30 May 6.6 09:43:46 10° W 20:12:31 80° N 20:45:45 10° E visible
02 Jun 4.8 06:52:41 20° WSW 06:57:06 66° S 17:45:26 10° E visible
03 Jun 3.7 05:57:56 60° SSW 05:58:33 63° S 06:15:54 10° E visible
04 Jun 5.1 05:03:11 31° ESE 05:03:11 31° ESE 05:09:05 10° ESE visible
